STARLINK-36059, 66904

Orbit data source: Space-Track

STARLINK-36059, 66904 is a payload satellite owned by SpaceX/Seattle (US) in LEO that was launched on Thu, 04 Dec 2025 UTC via an FALCON 9 launch vehicle from the Air Force Western Test Range (AFWTR). Payload-class satellites include a variety of spacecraft equipped with specific instruments for various scientific and technological missions. These include communications satellites like Starlink; space stations such as the ISS; scientific satellites like the Hubble; Earth observation satellites from companies like Planet Labs, Umbra, and HawkEye 360; GPS; miniature CubeSats for education and research; and military/defense satellites.

Loading next visibility...
Identifier
66904, 2025-283AC
Orbit
LEO
Country
Flag of USUS
Related business
Manufacturer
SpaceX/Seattle
Mission
Operational Commercial Communications
Bus & Motor
STARLINK V2MO, Unknown motor
Mass
575 kg wet, ~530 kg dry
Launch date (UTC)
2025-12-04 (7 months ago)
Launch vehicle
FALCON 9
Launch site
Air Force Western Test Range (AFWTR)
Object type
Payload
Rocket body
Debris
Shape & HBR
Box + 2 Pan, 17.7 m
Radar Cross Section
36.964 m², Large (>1 m²)

Expand to show TLE details & history
Last TLE update: 11 hours ago

TLE from 11 hours ago
0 STARLINK-36059
1 66904U 25283AC  26171.44573478  .00017828  00000-0  53749-3 0  9991
2 66904  53.1593 266.3719 0001160 114.0520 246.0604 15.34400939 31585
Epoch: 2026-06-20T10:41Z
TLE epoch observation values (Epoch: 2026-06-20T10:41:51.484Z)
Latitude
-0.00005°
Longitude
-162.7529°
Altitude
463.924 km
Speed
7.636 km/s
True Right ascension
17h 45m 29s
True Declination
0° 00' 00"
Sunlit
Object was in full shadow at epoch
Visualization orbit readout
Latitude
Unknown
Longitude
Unknown
Altitude
Unknown
Speed
Unknown
Apparent Right ascension
Unknown
Apparent Declination
Unknown
Sunlit
N/A
Visualization observer readout
Local Sidereal Time
08:32:38
Azimuth
Unknown
Elevation
Unknown
Doppler factor
Unknown
Orbital elements
Apogee altitude
463.751 km
Perigee altitude
462.164 km
Semi-major axis
6,841.094 km
Eccentricity
0.00012
Inclination
53.1593°
RAAN
266.3719°
Arg. of periapsis
114.052°
True anomaly
246.04825°
Mean anomaly
246.0604°
Eccentric anomaly
246.05433°
Mean motion
3.83579 °/min
Orbital period
93.85 mins
BSTAR
0.00053749
Loading maneuver chart data...
Computing Atmospheric mass density...
Loading historical data...
Loading historical data...
Loading historical data...
Loading historical data...
Loading historical data...
Loading historical data...
Loading historical data...

Documentation

Showing up to 5 results
|